Stations météo

réclame
Mon MeteoGroup
Lulea/Kallax, Suède (2186): Température de l'air & dewpoint: 18.08.2019 06:00:00 - 24.08.2019 06:00:00 (CEST)Lulea/Kallax, Suède (2186): Vitesse du vent & gusts: 18.08.2019 06:00:00 - 24.08.2019 06:00:00 (CEST)Lulea/Kallax, Suède (2186): Direction du vent: 18.08.2019 06:00:00 - 24.08.2019 06:00:00 (CEST)Lulea/Kallax, Suède (2186): reduced air pressure: 18.08.2019 06:00:00 - 24.08.2019 06:00:00 (CEST)Lulea/Kallax, Suède (2186): visibility: 18.08.2019 06:00:00 - 24.08.2019 06:00:00 (CEST)Lulea/Kallax, Suède (2186): Quantités de précipitations: 18.08.2019 06:00:00 - 24.08.2019 06:00:00 (CEST)
Date & Time tt [°C] td [°C] ff [km/h] ff [knt] fx [km/h] fx [knt] dd ppp [hPa] vv [km] rr [mm]
24.08.2019 06:00:00 9,9 8,7 16 9 25 14 NNW 1017,2 10 0,0
24.08.2019 05:00:00 9,8 8,7 16 9 25 14 NNW 1016,3 10 0,0
24.08.2019 04:00:00 10,1 9,0 21 11 25 14 NNW 1015,6 10 0,0
24.08.2019 03:00:00 10,0 8,9 18 10 32 18 NNW 1014,6 10 0,0
24.08.2019 02:00:00 11,1 10,0 18 10 32 18 NNW 1013,9 10 0,0
24.08.2019 01:00:00 11,5 10,6 22 12 32 18 NNW 1013,2 10 0,0
24.08.2019 00:00:00 11,9 11,1 18 10 32 18 NNW 1012,6 10 0,3
23.08.2019 23:00:00 12,2 11,4 16 9 32 18 N 1011,8 10 0,0
23.08.2019 22:00:00 12,4 11,8 18 10 29 16 N 1011,3 10 0,0
23.08.2019 21:00:00 12,6 12,1 15 8 25 14 NNW 1010,5 10 0,7
23.08.2019 20:00:00 12,4 11,8 18 10 25 14 NW 1010,1 10 0,0
23.08.2019 19:00:00 12,7 11,9 13 7 22 12 NNW 1010,2 10 0,0
23.08.2019 18:00:00 13,6 12,7 15 8 18 10 NNW 1010,0 10 0,0
23.08.2019 17:00:00 14,5 13,0 8 4 22 12 SW 1010,0 10 0,0
23.08.2019 16:00:00 14,5 13,0 11 6 18 10 SSE 1010,0 10 0,0
23.08.2019 15:00:00 14,0 13,2 11 6 25 14 E 1010,0 10 0,0
23.08.2019 14:00:00 12,3 11,5 15 8 29 16 NE 1010,8 4,0 7,0
23.08.2019 13:00:00 12,8 12,2 14 8 25 14 ESE 1011,5 9 6,0
23.08.2019 12:00:00 13,7 12,8 13 7 25 14 ESE 1012,1 5 2,0
23.08.2019 11:00:00 14,8 12,3 16 9 25 14 ESE 1012,8 10 0,0
23.08.2019 10:00:00 14,5 12,4 15 8 22 12 SE 1013,2 10 0,0
23.08.2019 09:00:00 14,1 12,7 16 9 22 12 SE 1013,6 10 0,0
23.08.2019 08:00:00 14,1 12,8 21 11 25 14 SSE 1014,0 10 0,0
23.08.2019 07:00:00 13,6 12,7 11 6 22 12 SSE 1014,5 10 0,0
23.08.2019 06:00:00 12,7 11,6 9 5 14 8 S 1014,8 10 0,0
23.08.2019 05:00:00 10,0 8,8 4 2 14 8 - 1015,1 10 0,0
23.08.2019 04:00:00 8,9 7,8 2 1 4 2 - 1015,3 10 0,0
23.08.2019 03:00:00 8,8 7,9 2 1 4 2 - 1015,9 10 0,0
23.08.2019 02:00:00 8,9 8,0 2 1 7 4 - 1016,3 10 0,0
23.08.2019 01:00:00 10,7 9,5 5 3 11 6 S 1016,4 10 0,0
23.08.2019 00:00:00 9,9 8,7 0 0 4 2 N 1016,6 10 0,0
22.08.2019 23:00:00 11,0 9,3 4 2 11 6 SSW 1016,7 10 0,0
22.08.2019 22:00:00 13,4 9,6 5 3 7 4 SW 1017,0 10 0,0
22.08.2019 21:00:00 14,5 9,5 8 4 14 8 SW 1016,7 10 0,0
22.08.2019 20:00:00 16,0 9,9 5 3 14 8 SW 1016,7 10 0,0
22.08.2019 19:00:00 16,5 10,4 8 4 25 14 S 1016,5 10 0,2
22.08.2019 18:00:00 17,7 8,8 8 4 18 10 SSW 1016,6 10 0,0
22.08.2019 17:00:00 19,0 8,3 11 6 22 12 SSW 1016,4 10 0,0
22.08.2019 16:00:00 18,9 6,7 9 5 18 10 W 1016,4 10 0,0
22.08.2019 15:00:00 18,0 8,3 11 6 22 12 WNW 1016,5 10 0,0
22.08.2019 14:00:00 18,6 8,0 8 4 18 10 - 1016,3 10 0,0
22.08.2019 13:00:00 17,8 8,9 11 6 22 12 NNW 1016,3 10 0,0
22.08.2019 12:00:00 17,0 9,2 13 7 22 12 NW 1016,3 10 0,0
22.08.2019 11:00:00 16,7 9,1 13 7 18 10 WNW 1016,1 10 0,0
22.08.2019 10:00:00 15,2 9,3 13 7 25 14 NW 1016,1 10 0,0
22.08.2019 09:00:00 13,9 8,7 18 10 25 14 NW 1015,9 10 0,0
22.08.2019 08:00:00 13,1 8,4 16 9 22 12 NW 1015,9 10 0,0
22.08.2019 07:00:00 11,7 8,2 13 7 18 10 WNW 1015,8 10 0,0
22.08.2019 06:00:00 10,6 8,0 8 4 11 6 NW 1015,7 10 0,0
22.08.2019 05:00:00 9,8 7,7 5 3 11 6 WNW 1015,5 10 0,0
22.08.2019 04:00:00 9,4 7,3 4 2 11 6 WNW 1015,5 10 0,0
22.08.2019 03:00:00 10,1 7,9 9 5 11 6 W 1015,5 10 0,0
22.08.2019 02:00:00 10,8 8,0 9 5 11 6 W 1015,4 10 0,0
22.08.2019 01:00:00 10,9 7,8 4 2 11 6 WNW 1015,3 10 0,0
22.08.2019 00:00:00 12,2 8,3 8 4 14 8 W 1015,2 10 0,0
21.08.2019 23:00:00 13,4 8,5 11 6 14 8 W 1015,1 10 0,0
21.08.2019 22:00:00 14,3 10,1 8 4 14 8 WSW 1014,9 10 0,0
21.08.2019 21:00:00 15,0 12,0 5 3 11 6 SSW 1014,7 10 0,0
21.08.2019 20:00:00 16,9 12,4 5 3 14 8 SW 1014,7 10 0,0
21.08.2019 19:00:00 17,9 12,4 9 5 22 12 SSW 1014,6 10 0,0
21.08.2019 18:00:00 19,1 11,6 9 5 14 8 SSW 1014,5 10 0,2
21.08.2019 17:00:00 17,8 12,7 13 7 32 18 S 1014,5 10 0,0
21.08.2019 16:00:00 18,7 12,9 16 9 25 14 S 1014,3 10 0,0
21.08.2019 15:00:00 17,8 13,1 21 11 29 16 S 1014,3 10 0,0
21.08.2019 14:00:00 18,6 12,1 18 10 29 16 S 1014,4 10 0,0
21.08.2019 13:00:00 18,4 11,9 18 10 25 14 S 1014,4 10 0,0
21.08.2019 12:00:00 18,0 11,1 13 7 18 10 S 1014,0 10 0,0
21.08.2019 11:00:00 18,6 9,9 9 5 18 10 SSW 1013,7 10 0,0
21.08.2019 10:00:00 17,6 10,7 9 5 18 10 W 1013,6 10 0,0
21.08.2019 09:00:00 16,8 10,9 9 5 18 10 SW 1013,5 10 0,0
21.08.2019 08:00:00 15,2 12,0 8 4 14 8 WSW 1013,2 10 0,0
21.08.2019 07:00:00 13,4 12,1 5 3 14 8 SW 1012,6 10 0,0
21.08.2019 06:00:00 12,7 12,2 4 2 7 4 SSW 1012,1 16 0,0
21.08.2019 05:00:00 11,5 11,0 2 1 11 6 - 1011,8 9 0,0
21.08.2019 04:00:00 13,1 12,6 8 4 11 6 WSW 1011,5 10 0,0
21.08.2019 03:00:00 13,0 12,5 5 3 11 6 S 1011,1 9 0,0
21.08.2019 02:00:00 14,1 13,5 8 4 14 8 S 1011,0 10 0,0
21.08.2019 01:00:00 14,5 13,5 9 5 18 10 S 1010,8 10 0,0
21.08.2019 00:00:00 14,7 13,6 13 7 18 10 SSW 1010,7 10 0,0
20.08.2019 23:00:00 15,1 13,6 9 5 18 10 S 1010,5 10 0,0
20.08.2019 22:00:00 14,9 13,4 11 6 14 8 SSW 1010,3 10 0,0
20.08.2019 21:00:00 15,6 13,6 13 7 22 12 S 1009,9 10 0,0
20.08.2019 20:00:00 15,4 13,4 15 8 25 14 SSW 1009,5 10 0,0
20.08.2019 19:00:00 15,7 13,4 21 11 29 16 SSW 1009,0 10 0,0
20.08.2019 18:00:00 16,9 13,6 22 12 32 18 S 1008,7 10 0,0
20.08.2019 17:00:00 17,2 13,7 26 14 36 19 S 1008,5 10 0,0
20.08.2019 16:00:00 17,1 14,0 26 14 40 21 S 1008,3 10 0,0
20.08.2019 15:00:00 17,1 13,8 28 15 40 21 S 1007,9 10 0,0
20.08.2019 14:00:00 17,0 13,7 24 13 43 23 S 1007,7 10 0,0
20.08.2019 13:00:00 17,3 13,8 24 13 40 21 S 1007,3 10 0,0
20.08.2019 12:00:00 17,2 12,7 22 12 32 18 S 1006,8 10 0,0
20.08.2019 11:00:00 16,0 12,4 22 12 32 18 S 1006,3 10 0,0
20.08.2019 10:00:00 15,5 12,6 21 11 32 18 S 1005,9 10 0,0
20.08.2019 09:00:00 15,6 12,5 16 9 25 14 S 1005,7 10 0,0
20.08.2019 08:00:00 15,2 12,5 15 8 25 14 SSW 1005,2 10 0,0
20.08.2019 07:00:00 14,4 12,8 18 10 29 16 SSW 1004,9 10 0,0
20.08.2019 06:00:00 14,0 12,7 16 9 22 12 SSW 1004,3 10 0,0
20.08.2019 05:00:00 13,6 12,8 13 7 22 12 S 1004,1 10 0,0
20.08.2019 04:00:00 13,1 12,3 8 4 18 10 S 1003,8 10 0,0
20.08.2019 03:00:00 13,8 12,9 8 4 18 10 S 1003,6 10 0,0
20.08.2019 02:00:00 14,4 13,3 13 7 18 10 S 1003,3 10 0,0
20.08.2019 01:00:00 13,9 13,1 5 3 14 8 S 1003,0 10 0,0
20.08.2019 00:00:00 14,2 13,2 8 4 18 10 S 1002,9 10 0,0
19.08.2019 23:00:00 14,8 13,7 13 7 22 12 SSW 1002,5 10 0,0
19.08.2019 22:00:00 14,9 13,6 15 8 29 16 S 1002,3 10 0,0
19.08.2019 21:00:00 15,7 14,1 18 10 32 18 SSW 1001,8 10 0,0
19.08.2019 20:00:00 15,8 14,2 21 11 36 19 S 1001,3 10 0,0
19.08.2019 19:00:00 15,9 14,3 22 12 36 19 S 1000,8 10 0,0
19.08.2019 18:00:00 17,1 14,2 18 10 29 16 S 1000,1 10 0,0
19.08.2019 17:00:00 17,0 15,0 15 8 36 19 SSW 999,3 10 0,0
19.08.2019 16:00:00 16,2 14,7 18 10 29 16 S 998,4 10 0,0
19.08.2019 15:00:00 15,6 14,6 18 10 25 14 S 997,6 10 0,1
19.08.2019 14:00:00 15,1 14,5 18 10 36 19 S 996,7 10 0,5
19.08.2019 13:00:00 14,8 14,3 24 13 40 21 SSE 996,6 3,0 2,0
19.08.2019 12:00:00 14,6 14,1 29 16 43 23 SSE 996,9 8 1,0
19.08.2019 11:00:00 14,2 13,7 28 15 40 21 ESE 998,0 9 6,0
19.08.2019 10:00:00 14,2 13,6 34 18 43 23 SE 999,1 8 5,0
19.08.2019 09:00:00 14,4 13,8 31 17 43 23 SE 1000,2 8 4,0
19.08.2019 08:00:00 14,3 13,7 29 16 36 19 SSE 1001,2 8 5,0
19.08.2019 07:00:00 14,2 13,6 24 13 40 21 SSE 1001,8 8 5,0
19.08.2019 06:00:00 14,4 13,4 31 17 43 23 SSE 1002,4 10 2,0
19.08.2019 05:00:00 14,7 13,2 35 19 43 23 SSE 1002,8 10 1,0
19.08.2019 04:00:00 15,7 13,2 29 16 40 21 SSE 1003,4 10 0,0
19.08.2019 03:00:00 15,8 13,5 28 15 36 19 SSE 1004,1 10 0,0
19.08.2019 02:00:00 15,7 14,4 22 12 32 18 SSE 1005,0 10 0,0
19.08.2019 01:00:00 16,0 14,4 21 11 32 18 SSE 1005,5 10 0,0
19.08.2019 00:00:00 16,1 14,6 24 13 32 18 SSE 1005,9 10 0,0
18.08.2019 23:00:00 16,1 14,6 22 12 36 19 S 1006,1 10 0,0
18.08.2019 22:00:00 15,4 14,8 24 13 32 18 S 1006,0 10 0,1
18.08.2019 21:00:00 15,8 14,3 26 14 40 21 SSE 1006,3 10 0,0
18.08.2019 20:00:00 15,7 14,4 22 12 36 19 S 1006,4 10 0,0
18.08.2019 19:00:00 15,3 14,5 21 11 36 19 S 1006,7 10 0,7
18.08.2019 18:00:00 15,5 14,0 28 15 43 23 S 1006,8 10 0,0
18.08.2019 17:00:00 15,7 14,6 26 14 40 21 S 1006,9 10 0,0
18.08.2019 16:00:00 15,2 14,4 28 15 50 27 S 1006,9 9 0,0
18.08.2019 15:00:00 15,6 14,1 28 15 61 33 S 1006,9 10 0,0
18.08.2019 14:00:00 14,8 13,7 41 22 58 31 S 1006,8 10 0,0
18.08.2019 13:00:00 14,9 13,8 34 18 47 25 SSE 1006,9 10 0,7
18.08.2019 12:00:00 15,1 14,1 28 15 40 21 SSE 1007,2 10 1,0
18.08.2019 11:00:00 15,5 14,5 24 13 36 19 SSE 1007,1 10 0,7
18.08.2019 10:00:00 15,2 14,1 26 14 36 19 SSE 1007,2 10 0,5
18.08.2019 09:00:00 15,4 14,3 24 13 32 18 S 1007,2 10 0,3
18.08.2019 08:00:00 15,5 14,0 26 14 43 23 S 1007,1 10 0,2
18.08.2019 07:00:00 15,8 14,2 22 12 43 23 S 1007,1 10 0,0
18.08.2019 06:00:00 16,0 14,4 24 13 32 18 S 1006,9 10 0,0

tt = Température de l'air
td = dewpoint
ff = Vitesse du vent
fx = gusts
dd = Direction du vent
ppp = reduced air pressure
vv = visibility
rr = Quantités de précipitations

stations d'obs. à proximité